Météo par heure à Ali

Ce jour, 13 Mai, Jeudi

Heure Température Précipitation Vent Pression Humidité
00:00 +13°C° 0 mm 2 m/s 715 mmHg 47%
01:00 +12°C° 0 mm 1 m/s 715 mmHg 49%
02:00 +12°C° 0 mm 1 m/s 714 mmHg 50%
03:00 +11°C° 0 mm 1 m/s 714 mmHg 51%
04:00 +11°C° 0 mm 1 m/s 714 mmHg 51%
05:00 +11°C° 0 mm 1 m/s 714 mmHg 52%
06:00 +13°C° 0 mm 1 m/s 715 mmHg 46%
07:00 +15°C° 0 mm 1 m/s 715 mmHg 41%
08:00 +18°C° 0 mm 1 m/s 715 mmHg 35%
09:00 +19°C° 0 mm 1 m/s 715 mmHg 32%
10:00 +19°C° 0 mm 2 m/s 715 mmHg 29%
11:00 +20°C° 0 mm 2 m/s 714 mmHg 26%
12:00 +21°C° 0 mm 2 m/s 714 mmHg 26%
13:00 +21°C° 0 mm 2 m/s 714 mmHg 25%
14:00 +23°C° 0 mm 2 m/s 714 mmHg 24%
15:00 +23°C° 0 mm 2 m/s 714 mmHg 25%
16:00 +23°C° 0 mm 2 m/s 714 mmHg 26%
17:00 +23°C° 0 mm 2 m/s 714 mmHg 27%
18:00 +20°C° 0 mm 2 m/s 714 mmHg 31%
19:00 +18°C° 0 mm 1 m/s 714 mmHg 36%
20:00 +15°C° 0 mm 1 m/s 714 mmHg 41%
21:00 +15°C° 0 mm 2 m/s 713 mmHg 41%
22:00 +15°C° 0 mm 2 m/s 713 mmHg 41%
23:00 +15°C° 0 mm 2 m/s 713 mmHg 41%

Demain, 14 Mai, Vendredi

Heure Température Précipitation Vent Pression Humidité
00:00 +14°C° 0 mm 3 m/s 713 mmHg 41%
01:00 +14°C° 0 mm 3 m/s 713 mmHg 41%
02:00 +13°C° 0 mm 3 m/s 713 mmHg 42%
03:00 +13°C° 0 mm 3 m/s 713 mmHg 43%
04:00 +12°C° 0 mm 3 m/s 712 mmHg 44%
05:00 +13°C° 0 mm 2 m/s 712 mmHg 45%
06:00 +14°C° 0 mm 3 m/s 713 mmHg 42%
07:00 +17°C° 0 mm 3 m/s 713 mmHg 40%
08:00 +18°C° 0 mm 3 m/s 713 mmHg 37%
09:00 +19°C° 0 mm 4 m/s 713 mmHg 40%
10:00 +19°C° 0 mm 5 m/s 713 mmHg 43%
11:00 +19°C° 0 mm 6 m/s 713 mmHg 46%
12:00 +17°C° 0.4 mm 5 m/s 713 mmHg 52%
13:00 +17°C° 0.4 mm 3 m/s 714 mmHg 57%
14:00 +17°C° 0.4 mm 2 m/s 714 mmHg 63%
15:00 +17°C° 0.4 mm 3 m/s 714 mmHg 61%
16:00 +17°C° 0.4 mm 4 m/s 714 mmHg 59%
17:00 +16°C° 0.4 mm 5 m/s 714 mmHg 57%
18:00 +15°C° 0.2 mm 5 m/s 715 mmHg 61%
19:00 +14°C° 0.2 mm 4 m/s 715 mmHg 64%
20:00 +13°C° 0.2 mm 3 m/s 716 mmHg 68%
21:00 +14°C° 0 mm 2 m/s 716 mmHg 68%
22:00 +13°C° 0 mm 2 m/s 716 mmHg 68%
23:00 +13°C° 0 mm 1 m/s 716 mmHg 68%

Après-demain, 15 Mai, Samedi

Heure Température Précipitation Vent Pression Humidité
00:00 +12°C° 0 mm 1 m/s 716 mmHg 69%
01:00 +11°C° 0 mm 1 m/s 715 mmHg 70%
02:00 +11°C° 0 mm 1 m/s 715 mmHg 71%
03:00 +11°C° 0 mm 1 m/s 715 mmHg 70%
04:00 +11°C° 0 mm 1 m/s 716 mmHg 69%
05:00 +11°C° 0 mm 1 m/s 716 mmHg 68%
06:00 +13°C° 0 mm 2 m/s 716 mmHg 61%
07:00 +14°C° 0 mm 2 m/s 716 mmHg 54%
08:00 +16°C° 0 mm 3 m/s 716 mmHg 47%
09:00 +17°C° 0 mm 2 m/s 716 mmHg 43%
10:00 +18°C° 0 mm 2 m/s 716 mmHg 39%
11:00 +19°C° 0 mm 2 m/s 716 mmHg 36%
12:00 +20°C° 0 mm 2 m/s 716 mmHg 34%
13:00 +20°C° 0 mm 2 m/s 715 mmHg 33%
14:00 +21°C° 0 mm 2 m/s 715 mmHg 32%
15:00 +21°C° 0 mm 2 m/s 715 mmHg 32%
16:00 +21°C° 0 mm 2 m/s 715 mmHg 33%
17:00 +21°C° 0 mm 2 m/s 715 mmHg 33%
18:00 +19°C° 0 mm 2 m/s 715 mmHg 37%
19:00 +17°C° 0 mm 2 m/s 715 mmHg 42%
20:00 +16°C° 0 mm 2 m/s 715 mmHg 46%
21:00 +15°C° 0 mm 2 m/s 715 mmHg 47%
22:00 +14°C° 0 mm 2 m/s 714 mmHg 49%
23:00 +13°C° 0 mm 2 m/s 714 mmHg 51%

16 Mai, Dimanche

Heure Température Précipitation Vent Pression Humidité
00:00 +13°C° 0 mm 1 m/s 714 mmHg 52%
01:00 +12°C° 0 mm 1 m/s 713 mmHg 53%
02:00 +11°C° 0 mm 1 m/s 713 mmHg 54%
03:00 +11°C° 0 mm 1 m/s 713 mmHg 54%
04:00 +11°C° 0 mm 1 m/s 713 mmHg 55%
05:00 +11°C° 0 mm 1 m/s 713 mmHg 55%
06:00 +12°C° 0 mm 3 m/s 714 mmHg 51%
07:00 +14°C° 0 mm 4 m/s 714 mmHg 48%
08:00 +17°C° 0 mm 5 m/s 714 mmHg 44%
09:00 +19°C° 0 mm 5 m/s 714 mmHg 41%
10:00 +21°C° 0 mm 5 m/s 714 mmHg 37%
11:00 +22°C° 0 mm 5 m/s 714 mmHg 34%
12:00 +23°C° 0 mm 5 m/s 714 mmHg 31%
13:00 +23°C° 0 mm 5 m/s 713 mmHg 29%
14:00 +25°C° 0 mm 4 m/s 713 mmHg 27%
15:00 +25°C° 0 mm 4 m/s 713 mmHg 28%
16:00 +25°C° 0 mm 3 m/s 713 mmHg 29%
17:00 +25°C° 0 mm 3 m/s 713 mmHg 30%
18:00 +21°C° 0 mm 2 m/s 712 mmHg 34%
19:00 +19°C° 0 mm 2 m/s 712 mmHg 37%
20:00 +18°C° 0 mm 1 m/s 712 mmHg 40%
21:00 +16°C° 0 mm 1 m/s 712 mmHg 43%
22:00 +15°C° 0 mm 1 m/s 712 mmHg 47%
23:00 +14°C° 0 mm 1 m/s 711 mmHg 50%

17 Mai, Lundi

Heure Température Précipitation Vent Pression Humidité
00:00 +14°C° 0 mm 1 m/s 711 mmHg 51%
01:00 +14°C° 0 mm 1 m/s 711 mmHg 53%
02:00 +14°C° 0 mm 1 m/s 711 mmHg 54%
03:00 +13°C° 0 mm 1 m/s 711 mmHg 54%
04:00 +13°C° 0 mm 1 m/s 711 mmHg 54%
05:00 +13°C° 0 mm 1 m/s 711 mmHg 54%
06:00 +15°C° 0 mm 2 m/s 712 mmHg 50%
07:00 +17°C° 0 mm 2 m/s 712 mmHg 46%
08:00 +19°C° 0 mm 3 m/s 712 mmHg 42%
09:00 +21°C° 0 mm 4 m/s 712 mmHg 39%
10:00 +23°C° 0 mm 4 m/s 712 mmHg 36%
11:00 +25°C° 0 mm 4 m/s 712 mmHg 33%
12:00 +26°C° 0 mm 4 m/s 712 mmHg 31%
13:00 +27°C° 0 mm 4 m/s 712 mmHg 29%
14:00 +28°C° 0 mm 3 m/s 711 mmHg 27%
15:00 +28°C° 0 mm 3 m/s 711 mmHg 27%
16:00 +28°C° 0 mm 2 m/s 711 mmHg 27%
17:00 +27°C° 0 mm 1 m/s 711 mmHg 27%
18:00 +25°C° 0 mm 1 m/s 711 mmHg 31%
19:00 +23°C° 0 mm 2 m/s 711 mmHg 35%
20:00 +19°C° 0 mm 2 m/s 711 mmHg 39%
21:00 +19°C° 0 mm 2 m/s 710 mmHg 41%
22:00 +18°C° 0 mm 2 m/s 710 mmHg 44%
23:00 +17°C° 0 mm 2 m/s 710 mmHg 46%

18 Mai, Mardi

Heure Température Précipitation Vent Pression Humidité
00:00 +17°C° 0 mm 2 m/s 710 mmHg 47%
01:00 +17°C° 0 mm 2 m/s 709 mmHg 47%
02:00 +16°C° 0 mm 2 m/s 709 mmHg 48%
03:00 +16°C° 0 mm 2 m/s 709 mmHg 49%
04:00 +16°C° 0 mm 2 m/s 709 mmHg 49%
05:00 +16°C° 0 mm 2 m/s 709 mmHg 50%
06:00 +19°C° 0 mm 1 m/s 709 mmHg 46%
07:00 +21°C° 0 mm 1 m/s 710 mmHg 42%
08:00 +24°C° 0 mm 1 m/s 710 mmHg 37%
09:00 +25°C° 0 mm 1 m/s 710 mmHg 35%
10:00 +26°C° 0 mm 1 m/s 710 mmHg 32%
11:00 +28°C° 0 mm 1 m/s 710 mmHg 29%
12:00 +28°C° 0 mm 1 m/s 710 mmHg 28%
13:00 +29°C° 0 mm 1 m/s 709 mmHg 26%
14:00 +30°C° 0 mm 1 m/s 709 mmHg 25%
15:00 +30°C° 0 mm 2 m/s 709 mmHg 26%
16:00 +29°C° 0 mm 2 m/s 709 mmHg 27%
17:00 +29°C° 0 mm 2 m/s 708 mmHg 28%
18:00 +27°C° 0 mm 2 m/s 708 mmHg 32%
19:00 +24°C° 0 mm 2 m/s 708 mmHg 36%
20:00 +21°C° 0 mm 2 m/s 708 mmHg 41%
21:00 +20°C° 0 mm 3 m/s 708 mmHg 39%
22:00 +20°C° 0 mm 3 m/s 708 mmHg 38%
23:00 +20°C° 0 mm 3 m/s 708 mmHg 37%
Voir plus

Nous avons besoin de votre consentement

Meteoprog et ses fournisseurs de services peuvent stocker et accéder à des données personnelles telles que des cookies, des identifiants d'appareils ou d'autres technologies similaires sur votre appareil et traiter ces données pour personnaliser le contenu et les publicités, ainsi que pour fournir des fonctionnalités de médias sociaux et analyser le trafic.

  • Stocker et/ou accéder à des informations sur votre appareil

    Des cookies, des identifiants d'appareils ou d'autres informations peuvent être stockés ou accessibles sur votre appareil aux fins indiquées ci-dessus.

  • Annonces et contenus personnalisés, mesure des annonces et des contenus, connaissance de l'audience et développement de produits

    Les annonces et le contenu peuvent être personnalisés en fonction d'un profil. D'autres données peuvent être ajoutées pour mieux personnaliser les annonces et le contenu. Les performances des publicités et du contenu peuvent être mesurées. Il est possible d'obtenir des informations sur le public qui a vu les publicités et le contenu. Ces données peuvent être utilisées pour développer ou améliorer l'expérience de l'utilisateur, les systèmes et les logiciels.

En cliquant sur "J'accepte", vous autorisez l'utilisation de cookies, des identifiants d'appareils, des balises web ou d'autres technologies similaires. Vos paramètres peuvent être modifiés dans le navigateur de votre appareil.

Dans certains cas, des intérêts légitimes peuvent être invoqués plutôt qu'un consentement. Vous pouvez en savoir plus à ce sujet dans notre Politique de confidentialité et de cookies.